This demonstration page uses our WeatherBlox Daily Observations layout. Learn more.

Left ArrowRight Arrow

Hourly Observations for March 3, 2022

Temp ( °F °C ) Dew Point ( °F °C ) Humidity (%) Winds ( mph kmh ) Pressure ( in mb ) Visibility ( mi km ) Precip ( " mm )
12:59 am 00:59 Clear 52 11.1 41 5 66 66 SSW 7 11 29.97 1015 10 16 0.00 0.00
1:59 am 01:59 Clear 52 11.1 40 4.4 64 64 SW 8 13 29.96 1015 10 16 0.00 0.00
2:59 am 02:59 Clear 52 11.1 38 3.3 59 59 SW 8 13 29.96 1014 10 16 0.00 0.00
3:59 am 03:59 Clear 53 11.7 38 3.3 57 57 SW 8 13 29.94 1014 10 16 0.00 0.00
4:59 am 04:59 Clear 54 12.2 37 2.8 53 53 SW 7 11 29.95 1014 10 16 0.00 0.00
5:59 am 05:59 Clear 55 12.8 37 2.8 51 51 SSW 9 15 29.96 1015 10 16 0.00 0.00
6:59 am 06:59 Mostly Cloudy 57 13.9 37 2.8 47 47 SW 8 13 29.98 1015 10 16 0.00 0.00
7:59 am 07:59 Mostly Cloudy 58 14.4 38 3.3 48 48 SSW 8 13 30.00 1016 10 16 0.00 0.00
8:59 am 08:59 Mostly Cloudy 62 16.7 38 3.3 41 41 W 8 13 30.02 1017 10 16 0.00 0.00
9:59 am 09:59 Mostly Cloudy 64 17.8 39 3.9 40 40 WNW 8 13 30.02 1017 10 16 0.00 0.00
10:59 am 10:59 Mostly Cloudy 61 16.1 39 3.9 44 44 NE 14 22 30.05 1018 10 16 0.00 0.00
11:59 am 11:59 Mostly Cloudy 58 14.4 40 4.4 51 51 NNE 15 24 30.06 1018 10 16 0.00 0.00
1:59 pm 13:59 Partly Cloudy 57 13.9 39 3.9 51 51 NE 16 26 30.06 1018 10 16 0.00 0.00
2:59 pm 14:59 Mostly Cloudy 57 13.9 38 3.3 49 49 NNE 17 28 30.06 1018 10 16 0.00 0.00
3:59 pm 15:59 Mostly Cloudy 56 13.3 38 3.3 51 51 NE 14 22 30.08 1019 10 16 0.00 0.00
4:59 pm 16:59 Mostly Cloudy 54 12.2 39 3.9 57 57 NE 8 13 30.11 1020 10 16 0.00 0.00
5:59 pm 17:59 Partly Cloudy 49 9.4 40 4.4 71 71 ENE 12 19 30.15 1021 10 16 0.00 0.00
6:59 pm 18:59 Partly Cloudy 48 8.9 39 3.9 71 71 ENE 12 19 30.19 1022 10 16 0.00 0.00
7:59 pm 19:59 Partly Cloudy 48 8.9 39 3.9 71 71 ENE 14 22 30.23 1024 10 16 0.00 0.00
8:59 pm 20:59 Partly Cloudy 47 8.3 37 2.8 69 69 ENE 10 17 30.27 1025 10 16 0.00 0.00
9:59 pm 21:59 Partly Cloudy 47 8.3 36 2.2 66 66 ENE 9 15 30.29 1026 10 16 0.00 0.00
10:59 pm 22:59 Mostly Cloudy 47 8.3 37 2.8 69 69 NE 8 13 30.32 1027 10 16 0.00 0.00
11:59 pm 23:59 Mostly Cloudy 46 7.8 29 -1.7 51 51 NNE 22 35 30.35 1028 10 16 0.00 0.00

Powered by AerisWeather